This is the latest recevied weather packets stored in our database for station/object ED1ZAI-14. If no packets are shown the sender has not sent any weather packets the latest 10 day(s).
| Time | Temp. | Humidity | Pressure | Rain* | Wind** | Luminosity | Snow |
|---|---|---|---|---|---|---|---|
| 1788264261 | 22.22° C | 39% | 814 hPa | - | - | - | - |
| 1788262461 | 19.44° C | 54% | 814 hPa | - | - | - | - |
| 1788260672 | 21.11° C | 49% | 814.1 hPa | - | - | - | - |
| 1788258861 | 20° C | 48% | 814 hPa | - | - | - | - |
| 1788257061 | 20.56° C | 51% | 813.9 hPa | - | - | - | - |
| 1788257061 | 20.56° C | 51% | 813.9 hPa | - | - | - | - |
| 1788255261 | 20.56° C | 56% | 813.8 hPa | - | - | - | - |
| 1788255261 | 20.56° C | 56% | 813.8 hPa | - | - | - | - |
| 1788253461 | 19.44° C | 65% | 813.7 hPa | - | - | - | - |
| 1788251661 | 20° C | 85% | 813.6 hPa | - | - | - | - |
| 1788249864 | 16.11° C | 100% | 813.5 hPa | - | - | - | - |
| 1788248061 | 14.44° C | 100% | 813.6 hPa | - | - | - | - |
| 1788246262 | 14.44° C | 100% | 813.4 hPa | - | - | - | - |
| 1788244461 | 13.33° C | 100% | 813.2 hPa | - | - | - | - |
| 1788242661 | 12.78° C | 100% | 813 hPa | - | - | - | - |
| 1788240861 | 12.78° C | 100% | 813 hPa | - | - | - | - |
| 1788239061 | 11.11° C | 100% | 813.1 hPa | - | - | - | - |
| 1788237260 | 11.11° C | 100% | 813.2 hPa | - | - | - | - |
| 1788235460 | 11.11° C | 100% | 813.2 hPa | - | - | - | - |
| 1788233663 | 11.67° C | 100% | 813.3 hPa | - | - | - | - |
| 1788231856 | 12.22° C | 100% | 813.3 hPa | - | - | - | - |
| 1788230056 | 12.22° C | 100% | 813.6 hPa | - | - | - | - |
| 1788228255 | 12.22° C | 100% | 813.6 hPa | - | - | - | - |
| 1788224657 | 12.78° C | 100% | 814 hPa | - | - | - | - |
| 1788222857 | 13.33° C | 99% | 814.2 hPa | - | - | - | - |
* Rain since midnight (hover to see other rain measurements)
** Current wind speed in m/s (hover to see current wind gust speed)